Каргала

Россия / Оренбургская область     51°53′26″N   54°52′07″E
темп.,
°C
ветер,
м/с
пор.,
м/с
влажн.,
%
обл.,
%
осадки,
мм/ч
давл.,
гПа
погр.,
м
9 марта, вт
вт923:00−3юз101695100 1.6 1010940
02:00−3юз101695100 1.0 1009894
05:00−3юз81595100 1.8 1009686
08:00−3юз71294100 0.1 1010476
11:00−3юз61095100 0.4 1011538
14:00−2ююз4795100 0.6 1010506
17:00−1ююз4797100 0.9 1009491
20:00−2ю4898100 0.9 1008363
10 марта, ср
ср1023:00−1ююз61197100 1.7 1006607
02:00−2ю81497100 1.3 1003745
05:00−7зсз111789100 3.9 1002495
08:00−10зсз8158970 0.0 1005505
11:00−12зсз8139075 0.1 1008423
14:00−11з7118967 0.0 1010531
17:00−12з7118882 0.0 1012593
20:00−15з6129090 0.0 1013370
11 марта, чт
чт1123:00−16зсз6129189 0.0 1014333
02:00−17сз3793100 0.0 1015181
05:00−19зсз41093100 0.0 1017246
08:00−24сз4109365 0.0 1019186
11:00−22сз599033 0.0 1020305
14:00−20сз58880 0.0 1022353
17:00−19зсз48890 0.0 1023344
20:00−23зсз34976 0.0 102552
12 марта, пт
пт1223:00−24зсз339931 0.0 102731
02:00−25з229971 0.0 102820
05:00−25з239842 0.0 102921
08:00−25з22970 0.0 103021
11:00−18зсз269311 0.0 1031228
14:00−14зсз359188 0.0 1032275
17:00−13зсз379266 0.0 1031258
20:00−17зсз23960 0.0 103325
13 марта, сб
сб1323:00−18сз229916 0.0 103521
02:00−19сз22980 0.0 103620
05:00−20сз22960 0.0 103620
08:00−21сз22920 0.0 103720
11:00−16ссз23860 0.0 1037106
14:00−13ссз24790 0.0 1037244
17:00−13ссз23860 0.0 103684
20:00−17ссз33840 0.0 103520